Location: East Guldeford
(50.9500°N, 0.7500°E)
Time: 17:31:54
(UTC+00:00)

Cosmos 1515 Rocket - Pass Details

Date: 12 May 2021
Orbit: 605 x 631 km, 82.5° (Epoch: 15 June)

Event Time Altitude Azimuth Distance (km) Brightness Sun altitude
Exits shadow 20:45:53 - 170° (S) 2,215 5.9 -9.4°
Reaches altitude 10° 20:46:27 10° 169° (SSE) 1,988 5.7 -9.5°
Maximum altitude 20:50:42 50° 94° (E) 798 3.8 -10.0°
Drops below altitude 10° 20:54:57 10° 20° (NNE) 1,989 6.5 -10.4°
Sets 20:57:14 0° 15° (NNE) 2,895 7.5 -10.7°
